"TOA5","AWS1","CR1000","7964","CR1000.Std.14","CPU:AWS1_114.CR1","64363","TBL110"
"TIMESTAMP","RECORD","Wind_spd_WVc(1)","Wind_spd_WVc(2)","Air_Temp_Avg","Humidity_Avg","SW_upper_Wm2_Avg","Rain_Tot","Press_Avg","Issui_Tot","Depth_cm","SR50A_Raw","Quality","Ground_Temp_Avg(1)","Ground_Temp_Avg(2)","SW_lower_Wm2_Avg","Albedo_Avg","SWC_per(1)","SWC_per(2)","Period(1)","Period(2)"
"TS","RN","","","","","","","","","","","","","","","","","","",""
"","","WVc","WVc","Avg","Avg","Avg","Tot","Avg","Tot","Smp","Smp","Smp","Avg","Avg","Avg","Avg","Smp","Smp","Smp","Smp"
"2018-01-30 00:00:00",325501,0.854,308.6,-9.52,74.64,0,0,856.0334,0,95.3,2.267,171,1.116,1.718,0,0,52.32,59.91,33.87,35.66
"2018-01-30 00:10:00",325502,0.585,340.3,-9.63,74.7,0,0,855.9786,0,95.8,2.262,174,1.135,1.722,0,0,52.32,59.85,33.87,35.64
"2018-01-30 00:20:00",325503,0.759,333.2,-9.68,78.3,0,0,855.8898,0,95.6,2.265,177,1.147,1.733,0.003793529,0,52.38,59.85,33.88,35.64
"2018-01-30 00:30:00",325504,0.617,333.6,-9.83,80,0,0,855.8056,0,95.4,2.267,174,1.183,1.758,0,0,52.32,59.85,33.87,35.64
"2018-01-30 00:40:00",325505,0.699,319.6,-9.78,77.89,0,0,855.8265,0,94.9,2.272,179,1.211,1.787,0,0,52.32,59.85,33.87,35.64
"2018-01-30 00:50:00",325506,0.218,187.8,-9.98,79.03,0,0,855.8996,0,95.4,2.268,174,1.224,1.817,0,0,52.38,59.85,33.88,35.64
"2018-01-30 01:00:00",325507,0.48,243.1,-9.94,79.36,0,0,856.1153,0.5,95.2,2.269,173,1.22,1.837,0.07589317,0,52.32,59.91,33.87,35.66
"2018-01-30 01:10:00",325508,0.491,301.4,-9.79,78.85,0,0,856.1284,0,95.3,2.268,170,1.213,1.848,0.1745556,0,52.32,59.85,33.87,35.64
"2018-01-30 01:20:00",325509,0.453,294.1,-9.83,79.31,0,0,856.0789,0,95.1,2.27,184,1.202,1.849,0.03415239,0,52.38,59.91,33.88,35.66
"2018-01-30 01:30:00",325510,0.396,197.3,-10.05,82,0,0,856.1298,0,95,2.273,193,1.194,1.85,0,0,52.38,59.85,33.88,35.64
"2018-01-30 01:40:00",325511,0.582,219,-10.26,85.6,0,0,855.9169,0,94.7,2.276,186,1.173,1.85,0,0,52.38,59.85,33.88,35.64
"2018-01-30 01:50:00",325512,0.714,186.5,-10.29,86.9,0,0,855.8114,0,94.7,2.277,197,1.175,1.85,0.02656307,0,52.32,59.91,33.87,35.66
"2018-01-30 02:00:00",325513,0.479,171.1,-10.34,86.9,0.08264883,0,855.8156,0,94.4,2.28,197,1.16,1.85,0,0,52.32,59.85,33.87,35.64
"2018-01-30 02:10:00",325514,0.739,180.1,-10.46,84.1,0.1180698,0,855.843,0,94.6,2.277,205,1.159,1.85,0,0,52.38,59.85,33.88,35.64
"2018-01-30 02:20:00",325515,0.587,217.4,-10.32,79.87,0,0,855.8789,0,94.3,2.28,196,1.163,1.85,0,0,52.32,59.91,33.87,35.66
"2018-01-30 02:30:00",325516,0.367,349.4,-10.27,77.69,0,0,856.0834,0,93.9,2.284,197,1.115,1.85,0,0,52.32,59.85,33.87,35.64
"2018-01-30 02:40:00",325517,0.283,346.5,-10.27,76.52,0,0,856.1319,0,94.3,2.281,214,1.117,1.851,0.007589447,0,52.32,59.85,33.87,35.64
"2018-01-30 02:50:00",325518,0.188,67.51,-10.5,78.61,0,0,856.0476,0,93.9,2.284,208,1.117,1.856,0.003794723,0,52.32,59.85,33.87,35.64
"2018-01-30 03:00:00",325519,0.184,12.25,-10.13,74.45,0,0,855.9,0,94.2,2.28,198,1.115,1.852,0.09486808,0,52.32,59.85,33.87,35.64
"2018-01-30 03:10:00",325520,0.308,27.84,-10.24,74.31,0,0,855.9484,0,94,2.284,197,1.115,1.852,0.0645103,0,52.32,59.85,33.87,35.64
"2018-01-30 03:20:00",325521,0.31,95.3,-10.23,75.19,0,0,855.9548,0,94,2.282,205,1.115,1.832,0.3377304,0,52.38,59.85,33.88,35.64
"2018-01-30 03:30:00",325522,0.394,213.7,-9.95,74.04,0,0,856.1319,0,93.8,2.284,197,1.115,1.832,0.6147451,0,52.32,59.85,33.87,35.64
"2018-01-30 03:40:00",325523,0.106,68.87,-10,75.91,0,0,856.1361,0,93.9,2.283,198,1.115,1.84,0.2276834,0,52.38,59.91,33.88,35.66
"2018-01-30 03:50:00",325524,0.361,14.63,-10.02,76.64,0,0,856.1383,0,93.9,2.283,197,1.115,1.837,0.2162992,0,52.38,59.91,33.88,35.66
"2018-01-30 04:00:00",325525,0.13,318.1,-9.98,76.92,0,0,856.21,0,93.8,2.284,198,1.115,1.824,0.2276834,0,52.32,59.85,33.87,35.64
"2018-01-30 04:10:00",325526,0.313,203.7,-10.05,78.21,0,0,856.345,0,93.8,2.285,178,1.115,1.83,0.178352,0,52.32,59.85,33.87,35.64
"2018-01-30 04:20:00",325527,0.31,181,-10.19,81.3,0,0,856.385,0,93.6,2.287,196,1.115,1.812,0.003794723,0,52.32,59.85,33.87,35.64
"2018-01-30 04:30:00",325528,0.527,250.8,-10.27,82.9,0,0,856.5264,0,93.6,2.287,195,1.115,1.816,0.07968919,0,52.32,59.85,33.87,35.64
"2018-01-30 04:40:00",325529,0.114,268.6,-10.21,83.6,0,0,856.6297,0,93.6,2.287,192,1.114,1.82,0.07589447,0,52.32,59.85,33.87,35.64
"2018-01-30 04:50:00",325530,0.364,195.1,-10.2,83.1,0,0,856.6381,0,93.4,2.289,177,1.115,1.827,0.110047,0,52.38,59.91,33.88,35.66
"2018-01-30 05:00:00",325531,0.07,263.9,-10.31,84.7,0.06297053,0,856.8385,0,93.7,2.286,195,1.115,1.82,0,0,52.32,59.91,33.87,35.66
"2018-01-30 05:10:00",325532,0.106,294.2,-10.48,85.4,0.003935658,0,856.9883,0,93.7,2.288,197,1.115,1.822,0,0,52.32,59.85,33.87,35.64
"2018-01-30 05:20:00",325533,0.206,315.3,-10.61,85.8,0,0,857.1528,0,93.7,2.288,190,1.115,1.802,0,0,52.32,59.85,33.87,35.64
"2018-01-30 05:30:00",325534,0.265,329.3,-10.77,85.2,0,0,857.3636,0,93.3,2.294,190,1.117,1.797,0,0,52.32,59.85,33.87,35.64
"2018-01-30 05:40:00",325535,0.24,6.155,-11.33,87.1,0,0,857.4186,0,93.9,2.289,190,1.116,1.769,0,0,52.32,59.85,33.87,35.64
"2018-01-30 05:50:00",325536,0.209,35.58,-11.32,86.3,0,0,857.6083,0,93.5,2.293,181,1.127,1.765,0,0,52.32,59.85,33.87,35.64
"2018-01-30 06:00:00",325537,0.179,21.44,-11.43,86.2,0,0,857.7539,0,93.4,2.296,181,1.155,1.763,0,0,52.38,59.85,33.88,35.64
"2018-01-30 06:10:00",325538,0.053,342.4,-11.81,87.5,0,0,857.9036,0,93.3,2.297,172,1.162,1.768,0,0,52.32,59.85,33.87,35.64
"2018-01-30 06:20:00",325539,0.005,342.4,-11.98,89.1,0,0,857.9058,0,93.3,2.299,195,1.168,1.774,0,0,52.38,59.85,33.88,35.64
"2018-01-30 06:30:00",325540,0.002,342.4,-12.45,88,0,0,858.1441,0,93.6,2.297,194,1.175,1.781,0,0,52.32,59.85,33.87,35.64
"2018-01-30 06:40:00",325541,0,0,-12.13,88.9,0,0,858.22,0,93.4,2.296,194,1.195,1.801,0.1176585,0,52.32,59.85,33.87,35.64
"2018-01-30 06:50:00",325542,0,0,-11.72,88.3,0,0,858.2579,0,93.5,2.295,196,1.216,1.822,1.08174,0,52.38,59.85,33.88,35.64
"2018-01-30 07:00:00",325543,0.03,81,-11.35,88.5,0.1495967,0,858.374,0,93.1,2.298,195,1.227,1.833,3.480695,3.996,52.32,59.85,33.87,35.64
"2018-01-30 07:10:00",325544,0.056,90.4,-11.74,86.9,2.771557,0,858.4942,0,93.5,2.295,195,1.238,1.842,8.472423,3.341,52.32,59.85,33.87,35.64
"2018-01-30 07:20:00",325545,0.081,204.2,-11.19,88.5,5.838492,0,858.663,0,93,2.297,187,1.243,1.848,18.07639,3.105,52.32,59.85,33.87,35.64
"2018-01-30 07:30:00",325546,0.253,211.3,-10.83,87.4,6.17713,0,858.663,0.5,93.2,2.293,199,1.245,1.851,17.287,2.807,52.32,59.85,33.87,35.64
"2018-01-30 07:40:00",325547,0.457,208.6,-10.81,86.2,7.681084,0,858.6655,0,93.2,2.293,199,1.246,1.852,16.63414,2.175,52.38,59.79,33.88,35.63
"2018-01-30 07:50:00",325548,0.478,213,-10.64,85.4,14.94092,0,858.6725,0,93,2.295,201,1.246,1.852,28.55746,1.935,52.38,59.79,33.88,35.63
"2018-01-30 08:00:00",325549,0.768,184.6,-10.62,85.8,25.35036,0,858.6725,0,93.2,2.293,211,1.246,1.852,42.30285,1.681,52.32,59.85,33.87,35.64
"2018-01-30 08:10:00",325550,0.764,182.1,-10.32,86.2,28.61807,0,858.8536,0,92.6,2.296,208,1.246,1.852,49.79619,1.745,52.38,59.85,33.88,35.64
"2018-01-30 08:20:00",325551,0.573,174.1,-9.85,82.9,49.96444,0,859.0808,0,93,2.291,204,1.226,1.846,67.92593,1.453,52.32,59.85,33.87,35.64
"2018-01-30 08:30:00",325552,0.465,174,-9.7,81.2,34.12143,0,859.1693,0,92.9,2.291,200,1.2,1.807,66.34951,1.942,52.32,59.85,33.87,35.64
"2018-01-30 08:40:00",325553,0.456,151.7,-9.45,80,42.32451,0,859.1693,0,92.9,2.29,201,1.19,1.819,80.99146,1.916,52.32,59.85,33.87,35.64
"2018-01-30 08:50:00",325554,0.679,164.9,-9.34,79.05,35.67454,0,859.1735,0,92.8,2.291,201,1.171,1.871,67.56431,1.894,52.32,59.85,33.87,35.64
"2018-01-30 09:00:00",325555,0.617,172.2,-9.04,77.68,49.45421,0,859.4055,0,92.8,2.29,199,1.132,1.897,86.21174,1.747,52.32,59.85,33.87,35.64
"2018-01-30 09:10:00",325556,0.67,137.3,-8.84,76.23,45.26692,0,859.4413,0,92.8,2.289,200,1.179,1.876,77.94399,1.725,52.32,59.85,33.87,35.64
"2018-01-30 09:20:00",325557,0.856,165.4,-8.59,74.86,52.13587,0,859.5911,0,93,2.286,193,1.187,1.83,94.40878,1.8,52.32,59.85,33.87,35.64
"2018-01-30 09:30:00",325558,1.044,162.7,-8.27,72.24,69.79733,0,859.6776,0,92.7,2.288,185,1.202,1.816,141.3354,2.029,52.32,59.85,33.87,35.64
"2018-01-30 09:40:00",325559,0.72,172.3,-7.968,72.37,61.40485,0,859.7324,0,92.6,2.286,184,1.202,1.808,123.6032,2.014,52.32,59.85,33.87,35.64
"2018-01-30 09:50:00",325560,0.617,174.3,-7.838,72.99,61.99079,0,859.7598,0,92.6,2.287,188,1.169,1.787,120.9307,1.949,52.32,59.85,33.87,35.64
"2018-01-30 10:00:00",325561,0.719,162,-7.825,75.02,58.51151,0,859.9286,0,92.8,2.285,197,1.133,1.837,112.4644,1.922,52.38,59.79,33.88,35.63
"2018-01-30 10:10:00",325562,0.687,170.6,-7.708,74.18,55.49282,0,859.9286,0,92.7,2.285,196,1.182,1.819,107.7892,1.941,52.32,59.85,33.87,35.64
"2018-01-30 10:20:00",325563,0.838,162.5,-7.601,73.3,52.56075,0,859.9433,0,92.7,2.284,195,1.203,1.808,100.9549,1.919,52.32,59.85,33.87,35.64
"2018-01-30 10:30:00",325564,0.657,181.7,-7.409,71.49,63.92152,0,859.9442,0,92.4,2.287,196,1.197,1.811,133.2107,2.077,52.32,59.85,33.87,35.64
"2018-01-30 10:40:00",325565,0.696,314.5,-7.784,68.02,54.75008,0,860.0545,0,92.5,2.288,195,1.171,1.798,119.739,2.161,52.32,59.85,33.87,35.64
"2018-01-30 10:50:00",325566,0.999,294.6,-7.722,68.74,86.5275,0,860.0426,0,92.4,2.288,197,1.152,1.806,170.3183,2.026,52.32,59.85,33.87,35.64
"2018-01-30 11:00:00",325567,0.613,5.435,-7.452,69.57,90.58257,0,859.8251,0,92.3,2.287,197,1.138,1.795,193.5059,2.133,52.32,59.85,33.87,35.64
"2018-01-30 11:10:00",325568,0.989,339.9,-7.346,70.75,65.06356,0,859.5889,0,92.1,2.29,199,1.145,1.809,127.2845,2.01,52.32,59.85,33.87,35.64
"2018-01-30 11:20:00",325569,0.294,300,-7.331,73.56,50.43451,0,859.5862,0,92.1,2.29,197,1.172,1.803,108.8384,2.152,52.32,59.85,33.87,35.64
"2018-01-30 11:30:00",325570,0.636,285,-7.054,71.34,101.0454,0,859.4575,0,92,2.289,201,1.188,1.796,215.8316,2.074,52.32,59.85,33.87,35.64
"2018-01-30 11:40:00",325571,0.697,317.9,-7.02,71.39,85.03242,0,859.3352,0,91.8,2.292,200,1.173,1.809,184.7249,2.153,52.32,59.85,33.87,35.64
"2018-01-30 11:50:00",325572,0.853,30.08,-7.323,73.1,52.82213,0,859.3289,0,91.9,2.292,200,1.161,1.813,109.6567,2.078,52.32,59.85,33.87,35.64
"2018-01-30 12:00:00",325573,0.611,7.212,-7.299,74.13,54.7722,0,859.2989,0,91.8,2.293,208,1.16,1.807,119.9377,2.186,52.32,59.85,33.87,35.64
"2018-01-30 12:10:00",325574,0.349,276,-6.963,73.72,70.07555,0,859.2325,0,91.9,2.29,216,1.145,1.785,148.7647,2.137,52.38,59.85,33.88,35.64
"2018-01-30 12:20:00",325575,0.263,303.7,-6.954,73.02,91.4635,0,859.2493,0,91.7,2.291,216,1.153,1.769,180.7498,2.028,52.32,59.85,33.87,35.64
"2018-01-30 12:30:00",325576,0.292,283.3,-6.531,69.04,180.866,0,859.2327,0,91.5,2.292,203,1.142,1.751,327.0086,1.812,52.32,59.85,33.87,35.64
"2018-01-30 12:40:00",325577,0.502,305.2,-6.214,69.22,251.5026,0,859.2275,0,91.4,2.291,213,1.126,1.758,435.0822,1.76,52.32,59.85,33.87,35.64
"2018-01-30 12:50:00",325578,0.504,222.7,-5.185,65.67,312.685,0,859.2441,0,90.8,2.293,200,1.092,1.816,478.7734,1.531,52.32,59.85,33.87,35.64
"2018-01-30 13:00:00",325579,0.589,341.7,-5.795,65.43,215.2993,0,859.256,0,91.2,2.293,205,1.162,1.799,329.6447,1.553,52.32,59.79,33.87,35.63
"2018-01-30 13:10:00",325580,0.649,352.7,-6.029,61.77,147.618,0,859.2938,0,91.4,2.291,205,1.128,1.742,257.9204,1.829,52.32,59.79,33.87,35.63
"2018-01-30 13:20:00",325581,0.508,42.18,-5.771,62.79,104.1643,0,859.3901,0,91.4,2.292,206,1.12,1.751,198.0137,1.918,52.32,59.85,33.87,35.64
"2018-01-30 13:30:00",325582,0.521,341.1,-6.583,69.05,49.67295,0,859.3668,0,91.5,2.294,200,1.089,1.709,97.67231,1.967,52.32,59.85,33.87,35.64
"2018-01-30 13:40:00",325583,0.59,334.8,-6.947,72.86,43.43877,0,859.5387,0,91.5,2.295,214,1.017,1.641,84.56622,1.945,52.32,59.85,33.87,35.64
"2018-01-30 13:50:00",325584,0.239,272.8,-6.786,70.86,174.503,0,859.577,0,91.3,2.294,205,1.025,1.636,203.5439,1.315,52.32,59.79,33.87,35.63
"2018-01-30 14:00:00",325585,0.842,303.4,-6.436,61.56,139.6613,0,859.6202,0,91.5,2.294,219,1.034,1.639,160.2605,1.351,52.32,59.85,33.87,35.64
"2018-01-30 14:10:00",325586,0.755,259,-6.833,61.87,73.77509,0,859.6895,0,91.4,2.295,174,1.049,1.654,123.6582,1.843,52.32,59.79,33.87,35.63
"2018-01-30 14:20:00",325587,0.472,200.6,-6.885,63.46,76.49332,0,859.7758,0,91.4,2.295,173,1.055,1.66,108.4103,1.69,52.32,59.85,33.87,35.64
"2018-01-30 14:30:00",325588,0.488,287.1,-7.121,62,34.21618,0,859.8253,0,91.5,2.296,173,1.074,1.679,56.99493,1.66,52.32,59.85,33.87,35.64
"2018-01-30 14:40:00",325589,0.459,314.3,-7.259,62.63,26.55647,0,859.8526,0,91.4,2.296,180,1.09,1.698,44.65704,1.682,52.32,59.85,33.87,35.64
"2018-01-30 14:50:00",325590,0.43,340.9,-7.019,61.27,26.27054,0,860.023,0,91.4,2.296,177,1.102,1.708,46.44807,1.769,52.27,59.85,33.85,35.64
"2018-01-30 15:00:00",325591,0.405,291.9,-7.026,62.58,24.40343,0,860.1134,0,91.4,2.296,182,1.068,1.712,44.0075,1.803,52.32,59.85,33.87,35.64
"2018-01-30 15:10:00",325592,0.643,262,-6.879,64.44,27.52526,0,860.309,0,91.3,2.296,173,1.068,1.743,53.32179,1.936,52.32,59.85,33.87,35.64
"2018-01-30 15:20:00",325593,0.523,263.4,-6.869,64.29,21.51385,0,860.4184,0,91.3,2.296,173,1.09,1.772,40.11082,1.855,52.32,59.85,33.87,35.64
"2018-01-30 15:30:00",325594,0.207,261.4,-6.976,64.44,14.85374,0,860.4189,0,91.1,2.299,190,1.027,1.789,27.45714,1.848,52.32,59.85,33.87,35.64
"2018-01-30 15:40:00",325595,0.28,266.2,-7.055,64.94,16.91055,0,860.4213,0,91,2.299,181,1.032,1.758,34.19842,2.014,52.32,59.85,33.87,35.64
"2018-01-30 15:50:00",325596,0.261,262.4,-6.924,66.25,14.98495,0,860.6132,0,91.1,2.299,177,1.049,1.667,30.73544,2.051,52.32,59.85,33.87,35.64
"2018-01-30 16:00:00",325597,0.208,310.5,-6.881,66.55,15.40751,0,860.757,0,90.9,2.3,181,1.089,1.685,31.62635,2.049,52.32,59.85,33.87,35.64
"2018-01-30 16:10:00",325598,0.34,264.8,-6.724,67.99,15.49125,0,860.9738,0,91,2.299,186,1.138,1.711,33.47918,2.161,52.32,59.85,33.87,35.64
"2018-01-30 16:20:00",325599,0.553,284.6,-6.858,67.94,15.12596,0,861.0897,0,90.9,2.301,182,1.153,1.725,32.57008,2.145,52.32,59.85,33.87,35.64
"2018-01-30 16:30:00",325600,0.368,239.6,-7.153,69.22,15.17333,0,861.4711,0,90.9,2.302,194,1.11,1.722,31.61106,2.083,52.32,59.85,33.87,35.64
"2018-01-30 16:40:00",325601,0.027,296,-7.164,70.1,11.65337,0,861.6487,0,90.6,2.304,173,1.121,1.72,24.92565,2.138,52.32,59.85,33.87,35.64
"2018-01-30 16:50:00",325602,0.097,325.9,-7.326,71.03,6.59952,0,861.6972,0,90.8,2.304,184,1.113,1.732,13.63271,2.039,52.32,59.79,33.87,35.63
"2018-01-30 17:00:00",325603,0.104,226.9,-7.685,74.09,3.932969,0,861.7605,0,90.8,2.305,194,1.111,1.788,7.538755,1.937,52.38,59.85,33.88,35.64
"2018-01-30 17:10:00",325604,0.071,268.2,-7.904,76.05,1.423735,0,861.8005,0,90.9,2.305,180,1.111,1.8,3.07921,2.309,52.32,59.85,33.87,35.64
"2018-01-30 17:20:00",325605,0.34,294.7,-7.85,76.24,0.01573188,0,862.0239,0,90.6,2.307,184,1.111,1.751,1.308285,0.466,52.32,59.85,33.87,35.64
"2018-01-30 17:30:00",325606,0.325,225.8,-7.974,75.9,0,0,862.0176,0,90.8,2.307,180,1.089,1.726,0.01137639,0,52.32,59.85,33.87,35.64
"2018-01-30 17:40:00",325607,0.48,199.4,-8.19,77.12,0,0,862.0261,0,90.6,2.309,186,1.065,1.717,0,0,52.32,59.85,33.87,35.64
"2018-01-30 17:50:00",325608,0.268,167.2,-8.35,77.33,0,0,862.0029,0,90.6,2.309,180,1.036,1.716,0,0,52.32,59.85,33.87,35.64
"2018-01-30 18:00:00",325609,0.366,75.81,-8.35,76.1,0,0,861.8223,0,90.8,2.307,193,1.042,1.714,0,0,52.32,59.85,33.87,35.64
"2018-01-30 18:10:00",325610,0.223,51.35,-8.18,73.31,0,0,861.9276,0,90.2,2.313,185,1.069,1.71,0,0,52.32,59.85,33.87,35.64
"2018-01-30 18:20:00",325611,0.627,349.5,-8.08,69.39,0,0,862.0746,0,90.1,2.313,185,1.114,1.728,0.06827112,0,52.32,59.85,33.87,35.64
"2018-01-30 18:30:00",325612,0.199,356.4,-8.14,67.91,0,0,862.1764,0,90.5,2.309,186,1.168,1.769,0.007586259,0,52.32,59.85,33.87,35.64
"2018-01-30 18:40:00",325613,0.271,337.1,-7.991,65.33,0,0,862.3595,0,90.4,2.309,193,1.175,1.787,0.2162164,0,52.32,59.85,33.87,35.64
"2018-01-30 18:50:00",325614,0.137,37.03,-8.1,66.19,0,0,862.4042,0,90.5,2.311,189,1.179,1.798,0.09862696,0,52.32,59.85,33.87,35.64
"2018-01-30 19:00:00",325615,0.39,335.8,-7.991,63.32,0,0,862.6178,0,90.5,2.308,193,1.132,1.802,0.1669101,0,52.32,59.85,33.87,35.64
"2018-01-30 19:10:00",325616,0.724,22,-8.03,63.06,0,0,862.6221,0,90.2,2.313,185,1.113,1.79,0.04931444,0,52.32,59.85,33.87,35.64
"2018-01-30 19:20:00",325617,0.483,16.02,-8.37,65.67,0,0,862.7761,0,90.8,2.309,193,1.113,1.751,0,0,52.32,59.85,33.87,35.64
"2018-01-30 19:30:00",325618,0.476,351.3,-8.5,65.74,0,0,862.8941,0,90.1,2.314,188,1.113,1.723,0.09483567,0,52.32,59.85,33.87,35.64
"2018-01-30 19:40:00",325619,0.362,27.81,-8.18,63.94,0,0,863.0818,0,90.1,2.313,193,1.113,1.72,0.3452018,0,52.38,59.85,33.88,35.64
"2018-01-30 19:50:00",325620,0.277,42.06,-8.14,64.94,0,0,863.1766,0,89.8,2.317,194,1.113,1.718,0.2238122,0,52.32,59.85,33.87,35.64
"2018-01-30 20:00:00",325621,0.215,208.2,-8.74,70.6,0,0,863.4128,0,90.3,2.314,193,1.113,1.718,0.007586854,0,52.32,59.85,33.87,35.64
"2018-01-30 20:10:00",325622,0.31,165.2,-8.67,70.23,0,0,863.3917,0,90.3,2.314,192,1.113,1.718,0.1403568,0,52.32,59.85,33.87,35.64
"2018-01-30 20:20:00",325623,0.4,119.3,-8.32,66.34,0,0,863.2568,0,90.2,2.312,194,1.113,1.718,0.4665915,0,52.27,59.85,33.85,35.64
"2018-01-30 20:30:00",325624,0.507,48.69,-8.03,63.59,0,0,863.2314,0,90.2,2.313,193,1.113,1.72,0.364169,0,52.32,59.85,33.87,35.64
"2018-01-30 20:40:00",325625,0.62,197,-8.19,64.83,0,0,863.2083,0,90,2.315,193,1.115,1.72,0.08345595,0,52.32,59.85,33.87,35.64
"2018-01-30 20:50:00",325626,0.259,158.3,-8.22,64.97,0,0,863.3651,0,90.1,2.314,193,1.126,1.732,0.01517406,0,52.32,59.85,33.87,35.64
"2018-01-30 21:00:00",325627,0.378,114.9,-8.08,63.81,0,0,863.4574,0,89.9,2.315,190,1.139,1.743,0.1783084,0,52.32,59.85,33.87,35.64
"2018-01-30 21:10:00",325628,0.276,111.2,-8.09,65.89,0,0,863.627,0,89.8,2.316,192,1.15,1.754,0.04173318,0,52.32,59.85,33.87,35.64
"2018-01-30 21:20:00",325629,0.075,105.3,-7.982,67.26,0,0,863.6653,0,89.9,2.316,192,1.179,1.773,0.1214152,0,52.32,59.85,33.87,35.64
"2018-01-30 21:30:00",325630,0.092,60.64,-8.1,69.2,0,0,863.6691,0,89.7,2.317,193,1.193,1.788,0.08727315,0,52.32,59.85,33.87,35.64
"2018-01-30 21:40:00",325631,0.04,75.29,-8.23,71.47,0,0,863.6833,0,89.6,2.321,192,1.198,1.794,0.05691776,0,52.32,59.85,33.87,35.64
"2018-01-30 21:50:00",325632,0.267,169.4,-8.35,70.07,0,0,863.6494,0,89.8,2.317,193,1.224,1.8,0.05312472,0,52.27,59.85,33.85,35.64
"2018-01-30 22:00:00",325633,0.151,117.5,-8.33,69.7,0,0,863.6405,0,89.7,2.318,192,1.22,1.804,0.03035712,0,52.32,59.85,33.87,35.64
"2018-01-30 22:10:00",325634,0.155,68.73,-8.39,70.62,0,0,863.4727,0,89.7,2.318,189,1.228,1.803,0.06450946,0,52.32,59.85,33.87,35.64
"2018-01-30 22:20:00",325635,0.12,48.67,-7.937,66.81,0,0,863.4886,0,89.8,2.316,193,1.229,1.807,0.3187428,0,52.32,59.85,33.87,35.64
"2018-01-30 22:30:00",325636,0.324,339.9,-7.933,66.91,0,0,863.4622,0,89.7,2.317,193,1.236,1.812,0.1783459,0,52.32,59.85,33.87,35.64
"2018-01-30 22:40:00",325637,0.353,357.6,-7.886,67.45,0,0,863.5693,0,89.6,2.317,193,1.241,1.824,0.1366084,0,52.32,59.79,33.87,35.63
"2018-01-30 22:50:00",325638,0.351,10.62,-8.17,69.19,0,0,863.7186,0,89.7,2.32,193,1.241,1.835,0.02276818,0,52.32,59.85,33.87,35.64
"2018-01-30 23:00:00",325639,0.278,16.6,-8.1,68.15,0,0,863.7787,0,89.6,2.318,194,1.235,1.837,0.0531261,0,52.27,59.85,33.85,35.64
"2018-01-30 23:10:00",325640,0.073,97.5,-8.49,71.28,0.02754961,0,863.9124,0,89.3,2.327,192,1.237,1.845,0.08348389,0,52.27,59.85,33.85,35.64
"2018-01-30 23:20:00",325641,0.067,50.05,-9.22,75.78,0.1180698,0,864.0117,0,89.6,2.32,196,1.2,1.849,0.1404048,0,52.32,59.85,33.87,35.64
"2018-01-30 23:30:00",325642,0.172,180.2,-8.41,71.42,0,0,864.0833,0,89.4,2.323,193,1.188,1.85,0.7058185,0,52.27,59.85,33.85,35.64
"2018-01-30 23:40:00",325643,0.262,315.7,-8.32,70.8,0,0,864.2036,0,89.5,2.32,194,1.204,1.85,0.5654137,0,52.32,59.79,33.87,35.63
"2018-01-30 23:50:00",325644,0.091,57.4,-8.24,71.27,0,0,864.2205,0,89.4,2.322,192,1.203,1.85,0.2959884,0,52.32,59.85,33.87,35.64
